Powrót do katalogu

YOUTHSAT

AktywnyNaukaSSO
NORAD 37388·PAYLOAD·🇮🇳 India

Wystrzelony Apr 20, 2011 z Satish Dhawan Space Centre

Loading…

Następne Przeloty (najbliższe 24 godziny)

TLE

ŚwieżeSource: Space-Track

Epoka: Sep 13, 2026, 22:33 UTC

1 37388U 11015B   26256.93997086  .00000132  00000-0  73006-4 0  9995
2 37388  98.3798 227.0379 0015738  81.8110 345.0736 14.25660470800289

Śledź YOUTHSAT w czasie rzeczywistym z AllMySat

Download on the App Store